Погода в Саврани

Украина / Одесская область     48˚07′47″N   30˚04′45″E
темп.,
°C
ветер,
м/с
пор.,
м/с
влажн.,
%
обл.,
%
осадки,
мм/ч
давл.,
гПа
погр.,
м
16 января, сб
сб1623:00−8˚зсз586897 0.0 1015882
02:00−8˚з486796 0.0 1015782
05:00−8˚з487447 0.0 1014438
08:00−8˚зюз388046 0.0 1015391
11:00−7˚сз458076 0.1 1016515
14:00−9˚сз566087 0.1 1016676
17:00−11˚сз566426 0.0 1017673
20:00−12˚ссз466613 0.0 1018687
17 января, вс
вс1723:00−12˚сз246852 0.0 1018597
02:00−12˚ссз357026 0.0 1017473
05:00−12˚св12750 0.0 1017193
08:00−12˚св11775 0.0 1017114
11:00−10˚св116761 0.0 1018411
14:00−8˚з126878 0.0 1017509
17:00−8˚с2376100 0.0 1017281
20:00−8˚св128399 0.0 1018224
18 января, пн
пн1823:00−9˚в2389100 0.3 1018262
02:00−10˚с2285100 0.4 1019359
05:00−11˚ссз4678100 0.1 1019512
08:00−12˚ссз3583100 0.1 1020508
11:00−10˚сз3573100 0.1 1021730
14:00−10˚сз5666100 0.1 1020765
17:00−11˚сз4671100 0.0 1021726
20:00−12˚ссз5773100 0.0 1021643
19 января, вт
вт1923:00−13˚сз4674100 0.0 1022565
02:00−14˚сз477771 0.0 1022453
05:00−14˚сз477649 0.0 1023405
08:00−14˚сз477960 0.0 1024377
11:00−11˚сз356841 0.0 1024403
14:00−9˚сз356021 0.0 1024509
17:00−10˚сз24690 0.0 1025168
20:00−10˚сз23730 0.0 102673
20 января, ср
ср2023:00−11˚сз11750 0.0 102621
02:00−11˚юз11760 0.0 102721
05:00−11˚ю12760 0.0 102721
08:00−11˚ююв23790 0.0 102739
11:00−7˚ю35650 0.0 1028268
14:00−4˚ююв47580 0.0 1027453
17:00−6˚ююв49730 0.0 1026252
20:00−7˚ююв410800 0.0 1026273